FENGYUN 1C DEB, 30959

Orbit data source: Space-Track

FENGYUN 1C DEB, 30959 is space debris in SSO originally from a launch on Mon, 10 May 1999 UTC launched from the Taiyaun Space Center, China (TSC). Fengyun 1C debris stems from the Chinese weather satellite Fengyun-1C, which was intentionally destroyed by a Chinese anti-satellite missile in 2007. This event dramatically increased the amount of space debris, with thousands of trackable fragments posing hazards to satellites and human spaceflight. The Fengyun 1C debris cloud has become a focal point in discussions about space sustainability and the need for international regulations to prevent the creation of new debris.

Loading next visibility...
Identifier
30959, 1999-025BAZ
Orbit
SSO
Country
Flag of CNCN / PRC
Related business
Manufacturer
Unknown
Mission
Spacecraft
Bus & Motor
Unknown
Mass
Unknown
Launch date (UTC)
1999-05-10 (27 years ago)
Launch vehicle
Unknown
Launch site
Taiyaun Space Center, China (TSC)
Object type
Payload
Rocket body
Debris
Shape & HBR
Unknown shape, 0.1 m
Radar Cross Section
Small (<0.1 m²)

Expand to show TLE details & history
Last TLE update: 1 week ago

TLE from 1 week ago
0 FENGYUN 1C DEB
1 30959U 99025BAZ 26161.20404986  .00005755  00000-0  18022-2 0  9997
2 30959  99.7015 137.9599 0051748  51.2640 309.3153 14.40322668629675
Epoch: 2026-06-10T04:53Z
TLE epoch observation values (Epoch: 2026-06-10T04:53:49.907Z)
Latitude
-0.00008°
Longitude
165.93641°
Altitude
737.056 km
Speed
7.499 km/s
True Right ascension
09h 11m 50s
True Declination
0° 00' 00"
Sunlit
Object was in daylight at epoch
Visualization orbit readout
Latitude
Unknown
Longitude
Unknown
Altitude
Unknown
Speed
Unknown
Apparent Right ascension
Unknown
Apparent Declination
Unknown
Sunlit
N/A
Visualization observer readout
Local Sidereal Time
08:53:22
Azimuth
Unknown
Elevation
Unknown
Doppler factor
Unknown
Orbital elements
Apogee altitude
791.525 km
Perigee altitude
717.704 km
Semi-major axis
7,132.752 km
Eccentricity
0.00517
Inclination
99.7015°
RAAN
137.9599°
Arg. of periapsis
51.264°
True anomaly
308.85464°
Mean anomaly
309.3153°
Eccentric anomaly
309.08516°
Mean motion
3.60294 °/min
Orbital period
99.92 mins
BSTAR
0.0018022
Loading maneuver chart data...
Computing Atmospheric mass density...
Loading historical data...
Loading historical data...
Loading historical data...
Loading historical data...
Loading historical data...
Loading historical data...
Loading historical data...

Documentation

Showing up to 5 results
|